Showing default

SUPERVIEW NEO-2 03, 62079

Orbit data source: Space-Track

SUPERVIEW NEO-2 03, 62079 is a payload satellite owned by Siwei (CN) in SSO that was launched on Sun, 24 Nov 2024 UTC via a CHANG ZHENG 2C launch vehicle from the Jiuquan Satellite Launch Center, China (JSC). Payload-class satellites include a variety of spacecraft equipped with specific instruments for various scientific and technological missions. These include communications satellites like Starlink; space stations such as the ISS; scientific satellites like the Hubble; Earth observation satellites from companies like Planet Labs, Umbra, and HawkEye 360; GPS; miniature CubeSats for education and research; and military/defense satellites.

Loading next visibility...
Identifier
62079, 2024-218B
Orbit
SSO
Country
Flag of CNCN / PRC
Related business
Manufacturer
DFH
Mission
Operational Commercial Radar Imaging
Bus & Motor
SIWEI, Unknown motor
Mass
600 kg wet, ~500 kg dry
Launch date (UTC)
2024-11-24 (1 year ago)
Launch vehicle
CHANG ZHENG 2C
Launch site
Jiuquan Satellite Launch Center, China (JSC)
Object type
Payload
Rocket body
Debris
Shape & HBR
Box, 0.3 m
Radar Cross Section
0.375 m², Large (>1 m²)

Expand to show TLE details & history
Last TLE update: 18 hours ago

TLE from 18 hours ago
0 SUPERVIEW NEO-2 03
1 62079U 24218B   25350.59898647  .00002996  00000-0  14340-3 0  9993
2 62079  97.4384 355.5514 0001615  93.6615 266.4805 15.19724721 58713
Epoch: 2025-12-16T14:22Z
TLE epoch observation values (Epoch: 2025-12-16T14:22:32.431Z)
Latitude
0.00005°
Longitude
54.43538°
Altitude
509.829 km
Speed
7.609 km/s
True Right ascension
23h 42m 12s
True Declination
0° 00' 00"
Sunlit
Object was in daylight at epoch
Visualization orbit readout
Latitude
Unknown
Longitude
Unknown
Altitude
Unknown
Speed
Unknown
Apparent Right ascension
Unknown
Apparent Declination
Unknown
Sunlit
N/A
Visualization observer readout
Local Sidereal Time
07:32:14
Azimuth
Unknown
Elevation
Unknown
Doppler factor
Unknown
Orbital elements
Apogee altitude
504.751 km
Perigee altitude
502.528 km
Semi-major axis
6,881.776 km
Eccentricity
0.00016
Inclination
97.4384°
RAAN
355.5514°
Arg. of periapsis
93.6615°
True anomaly
266.46203°
Mean anomaly
266.4805°
Eccentric anomaly
266.47126°
Mean motion
3.80183 °/min
Orbital period
94.69 mins
BSTAR
0.0001434
Loading maneuver chart data...
Computing Atmospheric mass density...
Loading historical data...
Loading historical data...
Loading historical data...
Loading historical data...
Loading historical data...
Loading historical data...
Loading historical data...
Other satellites on launch #218 in the year 2024 (2024-11-24 UTC)

Documentation

Showing up to 5 results
|